Location: Kaiser
(34.0939°N, 117.4889°W)
Time: 03:46:48
(UTC+00:00)

Cosmos 1892 Rocket - Pass Details

Date: 29 October 2020
Orbit: 607 x 632 km, 82.5° (Epoch: 26 November)

Event Time Altitude Azimuth Distance (km) Brightness Sun altitude
Rises 12:14:46 0° 178° (S) 2,850 7.0 -23.8°
Reaches altitude 10° 12:16:59 10° 176° (S) 1,953 6.2 -23.4°
Maximum altitude 12:21:15 65° 94° (E) 674 3.9 -22.5°
Drops below altitude 10° 12:25:35 10° 13° (NNE) 1,978 6.3 -21.6°
Sets 12:27:50 0° 11° (N) 2,891 7.1 -21.1°
